Ozark, AL

1:44 PM CDT on April 27, 2017 (GMT -0500)
Cairns Army Air Field

Weather History for KOZR - January, 2013

Change the Weather History Date:

Tuesday, January 22, 2013

  Actual Average Record
Temperature  
Mean Temperature 46 °F -  
Max Temperature 56 °F 58 °F 78 °F (1999)
Min Temperature 36 °F 36 °F 23 °F (2009)
Degree Days  
Heating Degree Days 18    
Moisture  
Dew Point 26 °F    
Average Humidity 49    
Maximum Humidity 78    
Minimum Humidity 29    
Precipitation  
Precipitation 0.00 in - - ()
Sea Level Pressure  
Sea Level Pressure 30.30 in    
Wind  
Wind Speed 6 mph (NNW)    
Max Wind Speed 9 mph    
Max Gust Speed -    
Visibility 10 miles    
Events      
Averages and records for this station are not official NWS values.
T = Trace of Precipitation, MM = Missing Value Source: NWS Daily Summary

Daily Weather History Graph

Daily Weather History Graph

Search for Another Location

Airport or City:

Trip Planner

Search our weather history database for the weather conditions in past years. The results will help you decide how hot, cold, wet, or windy it might be!

Date:

Astronomy

Jan. 22, 2013 Rise Set
Actual Time 6:40 AM CST 5:09 PM CST
Civil Twilight 6:14 AM CST 5:35 PM CST
Nautical Twilight 5:44 AM CST 6:04 PM CST
Astronomical Twilight 5:15 AM CST 6:33 PM CST
Moon 1:34 PM CST (1/22) 2:58 AM CST (1/22)
Length of Visible Light 11h 20m
Length of Day
10h 29m
Waxing Gibbous, 83% of the Moon is Illuminated
Jan 22
Waxing Gibbous
Jan 26
Full
Feb 3
Last Quarter
Feb 10
New
Feb 17
First Quarter

Hourly Weather History & Observations

Time (CST) Temp. Windchill Dew Point Humidity Pressure Visibility Wind Dir Wind Speed Gust Speed Precip Events Conditions
12:55 AM 45.9 °F 42.3 °F 32.2 °F 59% 30.19 in 10.0 mi North 6.9 mph - N/A   Clear
1:55 AM 43.9 °F 39.3 °F 30.9 °F 60% 30.20 in 10.0 mi North 8.1 mph - N/A   Clear
2:55 AM 42.4 °F 38.1 °F 29.7 °F 61% 30.21 in 10.0 mi North 6.9 mph - N/A   Clear
3:55 AM 41.0 °F 37.1 °F 27.9 °F 60% 30.22 in 10.0 mi North 5.8 mph - N/A   Clear
4:55 AM 40.1 °F 36.1 °F 27.9 °F 62% 30.25 in 10.0 mi North 5.8 mph - N/A   Clear
5:55 AM 38.7 °F 34.3 °F 27.0 °F 63% 30.28 in 10.0 mi NNW 5.8 mph - N/A   Clear
6:55 AM 37.4 °F 32.1 °F 25.7 °F 63% 30.30 in 10.0 mi NNW 6.9 mph - N/A   Clear
7:55 AM 39.2 °F 33.6 °F 23.7 °F 54% 30.32 in 10.0 mi North 8.1 mph - N/A   Clear
8:55 AM 41.5 °F 35.9 °F 23.0 °F 48% 30.35 in 10.0 mi North 9.2 mph - N/A   Clear
9:55 AM 45.5 °F 40.8 °F 22.5 °F 40% 30.36 in 10.0 mi NNE 9.2 mph - N/A   Clear
10:55 AM 48.2 °F - 23.0 °F 37% 30.35 in 10.0 mi Variable 5.8 mph - N/A   Clear
11:55 AM 52.5 °F - 22.6 °F 31% 30.32 in 10.0 mi NNE 6.9 mph - N/A   Clear
12:55 PM 54.5 °F - 22.5 °F 29% 30.29 in 10.0 mi North 5.8 mph - N/A   Clear
1:55 PM 55.4 °F - 23.5 °F 29% 30.28 in 10.0 mi Calm Calm - N/A   Clear
2:55 PM 56.7 °F - 24.6 °F 29% 30.28 in 10.0 mi NNW 9.2 mph - N/A   Clear
3:55 PM 56.3 °F - 24.4 °F 29% 30.29 in 10.0 mi WNW 4.6 mph - N/A   Clear
4:55 PM 54.0 °F - 25.3 °F 33% 30.30 in 10.0 mi NW 3.5 mph - N/A   Clear
5:55 PM 50.2 °F - 26.1 °F 39% 30.30 in 10.0 mi NW 3.5 mph - N/A   Clear
6:55 PM 48.2 °F - 26.8 °F 43% 30.31 in 10.0 mi NNW 5.8 mph - N/A   Clear
7:55 PM 45.7 °F 43.4 °F 26.6 °F 47% 30.32 in 10.0 mi NW 4.6 mph - N/A   Clear
8:55 PM 44.8 °F 41.6 °F 27.0 °F 50% 30.33 in 10.0 mi NNW 5.8 mph - N/A   Clear
9:55 PM 41.5 °F - 28.8 °F 60% 30.35 in 10.0 mi Calm Calm - N/A   Clear
10:55 PM 37.6 °F - 30.0 °F 74% 30.35 in 10.0 mi Calm Calm - N/A   Clear
11:55 PM 36.3 °F - 30.0 °F 78% 30.34 in 10.0 mi Calm Calm - N/A   Clear